SHIJIAN-17 (SJ-17)

Last updated on Jan. 15, 2021, 6:31 a.m. UTC

1 41838U 16065A   21014.95257902 -.00000370  00000-0  00000-0 0  9990
2 41838   0.7500  94.0068 0006078 327.4929 153.5568  1.00271591 15366
UTC
Height (km)
Latitude
Longitude
Inclination
Orbital Period
UTC large
Height (km)
Speed (km/s)
/
Latitude / Longitude
Inclination (degrees)
Orbital Period (minutes)
Azimuth
Elevation
Range (km)
Doppler Factor
iOS Compass Heading
iOS Angle

Next 30 passes for location: Hong Kong

Rise time Rise Azimuth (degrees) Set time Set Azimuth (degrees) Duration Max altitude (degrees)

No matching passes for this satellites